GW7962 Weather Reports


Display with metric or nautical units.
time (UTC)temp
F
wind
direction
speed
MPH
gust
MPH
rain 1hr
in
rain 24hr
in
rain mn
in
humidity
%
barometer
mb
20260901162919 59 129 1.0 3.0 0.00 0.00 0.00 77 1013.0
20260901162414 59 116 2.0 4.0 0.00 0.00 0.00 77 1012.5
20260901161913 60 137 4.0 7.0 0.00 0.00 0.00 76 1013.0
20260901161413 59 128 0.0 0.0 0.00 0.00 0.00 77 1012.7
20260901160908 59 116 1.0 2.0 0.00 0.00 0.00 77 1012.8
20260901160404 59 127 1.0 2.0 0.00 0.00 0.00 77 1013.1
20260901155903 59 126 0.0 2.0 0.00 0.00 0.00 77 1012.8
20260901155358 59 160 0.0 2.0 0.00 0.00 0.00 77 1012.8
20260901154855 59 125 1.0 2.0 0.00 0.00 0.00 77 1013.1
20260901154354 59 150 0.0 1.0 0.00 0.00 0.00 78 1012.8
20260901153848 59 116 2.0 3.0 0.00 0.00 0.00 78 1012.6
20260901153343 58 132 0.0 2.0 0.00 0.00 0.00 79 1012.8
20260901152842 58 97 1.0 2.0 0.00 0.00 0.00 79 1012.8
20260901152343 58 108 0.0 1.0 0.00 0.00 0.00 80 1012.8
20260901151838 58 238 2.0 3.0 0.00 0.00 0.00 80 1012.7
20260901151338 58 120 0.0 1.0 0.00 0.00 0.00 81 1012.6
20260901150837 57 120 0.0 1.0 0.00 0.00 0.00 81 1012.4
20260901150335 57 136 1.0 4.0 0.00 0.00 0.00 81 1012.8
20260901145833 57 155 1.0 2.0 0.00 0.00 0.00 82 1012.7
20260901145333 57 118 1.0 2.0 0.00 0.00 0.00 82 1012.7
20260901144828 57 118 1.0 3.0 0.00 0.00 0.00 83 1012.4
20260901144323 57 130 0.0 1.0 0.00 0.00 0.00 83 1012.3
20260901143819 57 102 1.0 2.0 0.00 0.00 0.00 83 1012.5
20260901143315 57 135 0.0 1.0 0.00 0.00 0.00 83 1012.6
20260901142811 57 136 0.0 1.0 0.00 0.00 0.00 83 1012.9
20260901142310 57 159 1.0 1.0 0.00 0.00 0.00 83 1012.5
20260901141806 57 131 0.0 0.0 0.00 0.00 0.00 83 1012.5
20260901141301 57 130 2.0 2.0 0.00 0.00 0.00 83 1012.6
20260901140759 57 125 2.0 3.0 0.00 0.00 0.00 83 1012.6
20260901140258 56 107 2.0 2.0 0.00 0.00 0.00 84 1012.4
20260901135753 56 147 1.0 2.0 0.00 0.00 0.00 84 1012.5
20260901135253 56 126 0.0 1.0 0.00 0.00 0.00 84 1012.5
20260901134749 56 172 1.0 2.0 0.00 0.00 0.00 84 1012.4
20260901134249 56 133 0.0 1.0 0.00 0.00 0.00 84 1012.4
20260901133749 56 142 1.0 2.0 0.00 0.00 0.00 85 1012.6
20260901133248 56 125 0.0 2.0 0.00 0.00 0.00 85 1012.4
20260901132747 56 130 0.0 0.0 0.00 0.00 0.00 85 1012.4
20260901132242 56 139 0.0 1.0 0.00 0.00 0.00 85 1012.3
20260901131737 56 138 0.0 2.0 0.00 0.00 0.00 85 1012.2
20260901131236 56 129 0.0 0.0 0.00 0.00 0.00 85 1012.3
20260901130731 56 124 0.0 1.0 0.00 0.00 0.00 85 1012.4
20260901130230 56 142 0.0 1.0 0.00 0.00 0.00 85 1012.2
20260901125728 56 116 0.0 2.0 0.00 0.00 0.00 85 1012.2
20260901125224 56 116 0.0 0.0 0.00 0.00 0.00 85 1012.1
20260901124718 56 138 0.0 0.0 0.00 0.00 0.00 85 1012.2
20260901124218 56 125 0.0 0.0 0.00 0.00 0.00 85 1012.3
20260901123718 56 135 0.0 1.0 0.00 0.00 0.00 85 1012.1
20260901123213 56 125 0.0 0.0 0.00 0.00 0.00 85 1012.2
20260901122712 56 122 0.0 0.0 0.00 0.00 0.00 85 1012.2
20260901122207 56 126 0.0 1.0 0.00 0.00 0.00 85 1012.3
20260901121701 56 136 0.0 2.0 0.00 0.00 0.00 85 1012.1
20260901121157 56 135 0.0 2.0 0.00 0.00 0.00 85 1012.2
20260901120656 56 134 1.0 2.0 0.00 0.00 0.00 85 1012.1
20260901120151 56 134 0.0 0.0 0.00 0.00 0.00 85 1011.9
20260901115646 56 147 0.0 3.0 0.00 0.00 0.00 85 1012.1
20260901115143 56 144 0.0 2.0 0.00 0.00 0.00 85 1012.1
20260901114639 56 116 1.0 1.0 0.00 0.00 0.00 85 1012.2
20260901114138 56 86 1.0 2.0 0.00 0.00 0.00 85 1012.0
20260901113637 56 138 0.0 0.0 0.00 0.00 0.00 85 1012.1
20260901113133 56 133 0.0 0.0 0.00 0.00 0.00 85 1012.2
20260901112632 56 253 1.0 1.0 0.00 0.00 0.00 85 1012.0
20260901112127 56 153 1.0 1.0 0.00 0.00 0.00 85 1012.0
20260901111626 56 136 0.0 0.0 0.00 0.00 0.00 85 1012.0
20260901111126 56 197 1.0 2.0 0.00 0.00 0.00 85 1012.2
20260901110621 56 126 0.0 1.0 0.00 0.00 0.00 86 1012.0
20260901110116 56 142 0.0 1.0 0.00 0.00 0.00 86 1012.0
20260901105613 55 111 0.0 0.0 0.00 0.00 0.00 86 1012.1
20260901105112 55 126 0.0 0.0 0.00 0.00 0.00 87 1011.9
20260901104608 55 122 0.0 0.0 0.00 0.00 0.00 87 1012.0
20260901104103 55 132 0.0 0.0 0.00 0.00 0.00 87 1012.0
20260901103603 55 132 0.0 0.0 0.00 0.00 0.00 87 1011.9
20260901103059 55 122 0.0 0.0 0.00 0.00 0.00 87 1011.9
20260901102558 55 111 0.0 0.0 0.00 0.00 0.00 87 1011.8
20260901102053 55 128 0.0 1.0 0.00 0.00 0.00 86 1011.9
20260901101549 55 146 0.0 1.0 0.00 0.00 0.00 86 1012.1
20260901101048 55 120 0.0 0.0 0.00 0.00 0.00 85 1011.9
20260901100548 55 100 1.0 2.0 0.00 0.00 0.00 85 1011.5
20260901100048 55 119 0.0 1.0 0.00 0.00 0.00 85 1011.9
20260901095546 56 134 0.0 0.0 0.00 0.00 0.00 84 1011.8
20260901095044 56 120 0.0 1.0 0.00 0.00 0.00 85 1011.8
20260901094539 55 122 0.0 1.0 0.00 0.00 0.00 85 1011.9
20260901094039 55 98 1.0 1.0 0.00 0.00 0.00 85 1011.8
20260901093534 55 122 0.0 0.0 0.00 0.00 0.00 85 1011.9
20260901093028 55 122 1.0 2.0 0.00 0.00 0.00 86 1011.7
20260901092524 55 113 1.0 1.0 0.00 0.00 0.00 85 1011.6
20260901092020 55 112 1.0 1.0 0.00 0.00 0.00 84 1011.7
20260901091516 56 130 0.0 1.0 0.00 0.00 0.00 83 1011.5
20260901091015 56 124 0.0 1.0 0.00 0.00 0.00 83 1011.6
20260901090515 56 107 1.0 2.0 0.00 0.00 0.00 84 1011.6
20260901090011 56 111 0.0 1.0 0.00 0.00 0.00 82 1011.5
20260901085506 56 109 1.0 2.0 0.00 0.00 0.00 82 1011.4
20260901085003 57 105 2.0 3.0 0.00 0.00 0.00 81 1011.2
20260901084458 57 130 0.0 0.0 0.00 0.00 0.00 81 1011.4
20260901083954 57 127 1.0 1.0 0.00 0.00 0.00 81 1011.2
20260901083455 57 128 0.0 0.0 0.00 0.00 0.00 80 1011.3
20260901082952 57 117 0.0 1.0 0.00 0.00 0.00 80 1011.3
20260901082448 58 123 0.0 0.0 0.00 0.00 0.00 79 1011.2
20260901081943 58 123 0.0 1.0 0.00 0.00 0.00 79 1011.4
20260901081437 58 136 0.0 0.0 0.00 0.00 0.00 78 1011.4
20260901080932 59 138 0.0 0.0 0.00 0.00 0.00 78 1011.5
20260901080427 59 105 1.0 2.0 0.00 0.00 0.00 77 1011.3
20260901075926 59 109 0.0 1.0 0.00 0.00 0.00 76 1011.4
20260901075422 59 135 0.0 0.0 0.00 0.00 0.00 76 1011.6
20260901074922 60 153 0.0 2.0 0.00 0.00 0.00 76 1011.1
20260901074422 60 118 0.0 0.0 0.00 0.00 0.00 74 1011.3
20260901073917 60 132 0.0 2.0 0.00 0.00 0.00 74 1011.2
20260901073413 60 139 0.0 2.0 0.00 0.00 0.00 73 1011.0
20260901072908 61 216 1.0 2.0 0.00 0.00 0.00 73 1010.8
20260901072409 61 137 1.0 1.0 0.00 0.00 0.00 72 1011.0
20260901071904 61 152 1.0 1.0 0.00 0.00 0.00 72 1011.0
20260901071402 61 94 1.0 2.0 0.00 0.00 0.00 71 1010.6
20260901070901 62 119 1.0 2.0 0.00 0.00 0.00 70 1010.7
20260901070357 62 136 1.0 2.0 0.00 0.00 0.00 70 1010.6
20260901065856 62 131 0.0 1.0 0.00 0.00 0.00 69 1010.5
20260901065351 62 143 0.0 1.0 0.00 0.00 0.00 68 1010.6
20260901064847 62 127 1.0 1.0 0.00 0.00 0.00 68 1010.7
20260901064343 62 184 1.0 2.0 0.00 0.00 0.00 68 1011.0
20260901063840 62 137 2.0 3.0 0.00 0.00 0.00 68 1010.5
20260901063336 63 128 0.0 2.0 0.00 0.00 0.00 67 1010.4
20260901062832 62 126 2.0 4.0 0.00 0.00 0.00 67 1010.5
20260901062328 62 114 1.0 2.0 0.00 0.00 0.00 67 1010.2
20260901061823 62 133 0.0 0.0 0.00 0.00 0.00 68 1010.2
20260901061318 63 113 0.0 1.0 0.00 0.00 0.00 67 1010.3
20260901060814 63 134 1.0 2.0 0.00 0.00 0.00 66 1010.1
20260901060310 63 123 0.0 2.0 0.00 0.00 0.00 65 1010.1
20260901055804 63 130 0.0 1.0 0.00 0.00 0.00 65 1010.1
20260901055300 62 111 1.0 1.0 0.00 0.00 0.00 66 1010.1
20260901054757 62 140 0.0 0.0 0.00 0.00 0.00 67 1009.9
20260901054254 63 119 0.0 0.0 0.00 0.00 0.00 65 1010.1
20260901053749 63 131 0.0 0.0 0.00 0.00 0.00 64 1010.2
20260901053249 64 136 0.0 0.0 0.00 0.00 0.00 64 1010.0
20260901052745 64 131 0.0 0.0 0.00 0.00 0.00 63 1010.0
20260901052240 65 149 0.0 0.0 0.00 0.00 0.00 61 1010.3
20260901051739 65 135 0.0 2.0 0.00 0.00 0.00 60 1010.1
20260901051234 65 85 1.0 2.0 0.00 0.00 0.00 61 1010.1
20260901050730 64 129 0.0 1.0 0.00 0.00 0.00 58 1009.9
20260901050225 63 127 0.0 1.0 0.00 0.00 0.00 58 1009.7
20260901045720 63 127 1.0 1.0 0.00 0.00 0.00 59 1009.7
20260901045214 62 130 1.0 2.0 0.00 0.00 0.00 60 1009.5
20260901044710 62 111 1.0 1.0 0.00 0.00 0.00 62 1009.6
20260901044206 62 108 1.0 2.0 0.00 0.00 0.00 61 1009.7
20260901043701 63 114 1.0 1.0 0.00 0.00 0.00 61 1009.4
20260901043157 63 105 1.0 1.0 0.00 0.00 0.00 61 1009.6
20260901042656 63 111 1.0 1.0 0.00 0.00 0.00 61 1009.5
20260901042151 63 120 1.0 1.0 0.00 0.00 0.00 61 1009.4
20260901041648 63 110 2.0 2.0 0.00 0.00 0.00 61 1009.4
20260901041147 63 114 1.0 2.0 0.00 0.00 0.00 61 1009.4
20260901040642 64 97 1.0 2.0 0.00 0.00 0.00 60 1009.5
20260901040141 65 109 2.0 2.0 0.00 0.00 0.00 59 1009.3
20260901035640 65 119 0.0 1.0 0.00 0.00 0.00 59 1009.3
20260901035139 65 124 0.0 1.0 0.00 0.00 0.00 59 1009.0
20260901034638 66 105 1.0 1.0 0.00 0.00 0.00 59 1009.0
20260901034138 66 122 0.0 0.0 0.00 0.00 0.00 58 1009.1
20260901033638 66 126 0.0 0.0 0.00 0.00 0.00 57 1009.0
20260901033137 66 130 0.0 1.0 0.00 0.00 0.00 56 1008.9
20260901032636 67 122 1.0 2.0 0.00 0.00 0.00 55 1009.0
20260901032131 68 118 1.0 2.0 0.00 0.00 0.00 54 1008.5
20260901031626 70 107 1.0 2.0 0.00 0.00 0.00 51 1008.7
20260901031122 70 124 0.0 1.0 0.00 0.00 0.00 49 1008.7
20260901030617 71 133 0.0 0.0 0.00 0.00 0.00 48 1008.7
20260901030112 71 134 0.0 0.0 0.00 0.00 0.00 47 1008.5
20260901025612 72 134 0.0 0.0 0.00 0.00 0.00 47 1008.7
20260901025106 72 134 0.0 0.0 0.00 0.00 0.00 48 1008.7
20260901024601 73 134 0.0 0.0 0.00 0.00 0.00 47 1008.6
20260901024100 74 135 0.0 0.0 0.00 0.00 0.00 45 1008.7
20260901023559 75 141 0.0 0.0 0.00 0.00 0.00 44 1008.5
20260901023054 75 144 0.0 0.0 0.00 0.00 0.00 43 1008.6
20260901022549 76 129 0.0 0.0 0.00 0.00 0.00 42 1008.7
20260901022044 76 145 0.0 1.0 0.00 0.00 0.00 41 1008.9
20260901021540 77 128 0.0 2.0 0.00 0.00 0.00 42 1008.8
20260901021035 77 130 0.0 1.0 0.00 0.00 0.00 42 1008.5
20260901020530 78 131 0.0 1.0 0.00 0.00 0.00 42 1008.6
20260901020026 78 137 0.0 1.0 0.00 0.00 0.00 42 1008.8
20260901015521 78 121 0.0 1.0 0.00 0.00 0.00 41 1008.6
20260901015020 78 129 0.0 1.0 0.00 0.00 0.00 42 1008.5
20260901014516 78 110 0.0 2.0 0.00 0.00 0.00 42 1008.8
20260901014012 78 129 1.0 1.0 0.00 0.00 0.00 41 1008.4
20260901013508 78 104 0.0 0.0 0.00 0.00 0.00 42 1008.3
20260901013003 79 96 0.0 1.0 0.00 0.00 0.00 42 1008.6
20260901012503 79 134 0.0 1.0 0.00 0.00 0.00 42 1008.6
20260901011958 80 127 0.0 2.0 0.00 0.00 0.00 40 1008.7
20260901011454 80 120 0.0 2.0 0.00 0.00 0.00 40 1008.5
20260901010952 80 128 0.0 2.0 0.00 0.00 0.00 40 1008.7
20260901010447 81 262 3.0 6.0 0.00 0.00 0.00 39 1008.4
20260901005946 81 178 1.0 2.0 0.00 0.00 0.00 40 1008.6
20260901005442 81 122 1.0 2.0 0.00 0.00 0.00 40 1008.4
20260901004937 81 113 1.0 3.0 0.00 0.00 0.00 39 1008.6
20260901004436 82 319 4.0 6.0 0.00 0.00 0.00 39 1008.4
20260901003931 82 123 0.0 0.0 0.00 0.00 0.00 39 1008.5
20260901003426 81 135 1.0 4.0 0.00 0.00 0.00 39 1008.5
20260901002924 82 1 3.0 3.0 0.00 0.00 0.00 38 1008.6
20260901002424 82 162 2.0 4.0 0.00 0.00 0.00 38 1008.6
20260901001919 83 101 1.0 2.0 0.00 0.00 0.00 37 1008.7
20260901001414 83 104 0.0 2.0 0.00 0.00 0.00 37 1008.6
20260901000909 83 120 1.0 6.0 0.00 0.00 0.00 37 1008.6
20260901000405 84 196 1.0 4.0 0.00 0.00 0.00 35 1008.4
20260831235903 86 38 4.0 8.0 0.00 0.00 0.00 34 1008.8
20260831235359 86 170 1.0 2.0 0.00 0.00 0.00 33 1008.6
20260831234859 86 206 2.0 4.0 0.00 0.00 0.00 33 1008.6
20260831234354 85 167 2.0 3.0 0.00 0.00 0.00 34 1008.8
20260831233850 85 136 2.0 2.0 0.00 0.00 0.00 33 1008.5
20260831233344 85 73 1.0 2.0 0.00 0.00 0.00 34 1008.7
20260831232840 85 132 0.0 1.0 0.00 0.00 0.00 34 1008.6
20260831232336 85 194 2.0 3.0 0.00 0.00 0.00 32 1008.7
20260831231832 85 277 2.0 7.0 0.00 0.00 0.00 33 1008.6
20260831231328 86 152 1.0 2.0 0.00 0.00 0.00 30 1008.7
20260831230823 85 133 2.0 4.0 0.00 0.00 0.00 30 1008.6
20260831230318 86 217 2.0 4.0 0.00 0.00 0.00 31 1008.6
20260831225817 85 119 1.0 2.0 0.00 0.00 0.00 31 1008.6
20260831225312 84 160 1.0 3.0 0.00 0.00 0.00 31 1008.8
20260831224808 85 99 1.0 3.0 0.00 0.00 0.00 31 1008.5
20260831224303 84 183 1.0 4.0 0.00 0.00 0.00 33 1008.6
20260831223757 84 122 1.0 3.0 0.00 0.00 0.00 32 1008.8
20260831223254 83 32 3.0 6.0 0.00 0.00 0.00 32 1008.7
20260831222750 83 206 1.0 6.0 0.00 0.00 0.00 33 1009.0
20260831222246 83 103 6.0 8.0 0.00 0.00 0.00 32 1008.8
20260831221741 83 260 4.0 7.0 0.00 0.00 0.00 32 1008.9
20260831221236 83 142 1.0 2.0 0.00 0.00 0.00 33 1009.0
20260831220731 83 334 5.0 10.0 0.00 0.00 0.00 33 1008.9
20260831220226 84 132 1.0 2.0 0.00 0.00 0.00 32 1009.1
20260831215727 84 53 4.0 7.0 0.00 0.00 0.00 31 1009.3
20260831215223 84 265 2.0 6.0 0.00 0.00 0.00 32 1009.1
20260831214719 82 141 0.0 4.0 0.00 0.00 0.00 33 1009.2
20260831214216 84 64 4.0 8.0 0.00 0.00 0.00 31 1009.2
20260831213711 84 2 2.0 9.0 0.00 0.00 0.00 32 1009.2
20260831213207 83 134 1.0 2.0 0.00 0.00 0.00 32 1009.2
20260831212702 84 84 6.0 7.0 0.00 0.00 0.00 31 1009.2
20260831212200 83 128 3.0 6.0 0.00 0.00 0.00 31 1009.3
20260831211658 84 84 2.0 7.0 0.00 0.00 0.00 30 1009.3
20260831211153 84 288 1.0 3.0 0.00 0.00 0.00 32 1009.4
20260831210654 85 161 1.0 2.0 0.00 0.00 0.00 31 1009.1
20260831210150 84 112 1.0 2.0 0.00 0.00 0.00 30 1009.1
20260831205648 84 322 3.0 4.0 0.00 0.00 0.00 31 1009.1
20260831205145 83 151 2.0 2.0 0.00 0.00 0.00 31 1009.2
20260831204645 84 124 1.0 3.0 0.00 0.00 0.00 32 1009.4
20260831204143 82 179 2.0 3.0 0.00 0.00 0.00 33 1009.4
20260831203638 83 257 3.0 4.0 0.00 0.00 0.00 32 1009.3
20260831203137 82 169 1.0 2.0 0.00 0.00 0.00 34 1009.4
20260831202636 82 60 5.0 8.0 0.00 0.00 0.00 33 1009.5
20260831202131 82 129 2.0 4.0 0.00 0.00 0.00 33 1009.3
20260831201630 81 118 1.0 6.0 0.00 0.00 0.00 34 1009.5
20260831201125 81 226 3.0 4.0 0.00 0.00 0.00 34 1009.6
20260831200622 80 144 0.0 2.0 0.00 0.00 0.00 35 1009.7
20260831200121 80 154 1.0 3.0 0.00 0.00 0.00 35 1009.8
20260831195617 80 154 1.0 4.0 0.00 0.00 0.00 36 1009.8
20260831195112 80 167 3.0 4.0 0.00 0.00 0.00 37 1010.1
20260831194607 79 178 3.0 6.0 0.00 0.00 0.00 38 1010.0
20260831194102 79 90 1.0 7.0 0.00 0.00 0.00 40 1010.3
20260831193557 78 193 2.0 4.0 0.00 0.00 0.00 40 1010.0
20260831193057 77 124 2.0 4.0 0.00 0.00 0.00 43 1010.2
20260831192552 77 124 1.0 4.0 0.00 0.00 0.00 43 1010.3
20260831192048 78 341 4.0 6.0 0.00 0.00 0.00 41 1010.3
20260831191543 76 133 2.0 3.0 0.00 0.00 0.00 44 1010.3
20260831191039 75 126 2.0 7.0 0.00 0.00 0.00 46 1010.4
20260831190534 75 277 2.0 6.0 0.00 0.00 0.00 46 1010.5
20260831190033 77 209 4.0 4.0 0.00 0.00 0.00 45 1010.4
20260831185529 75 153 1.0 1.0 0.00 0.00 0.00 47 1010.6
20260831185025 75 262 2.0 4.0 0.00 0.00 0.00 46 1010.7
20260831184524 74 192 2.0 4.0 0.00 0.00 0.00 46 1010.8
20260831184019 74 54 2.0 3.0 0.00 0.00 0.00 48 1010.8
20260831183518 74 205 2.0 3.0 0.00 0.00 0.00 48 1011.0
20260831183019 73 127 2.0 2.0 0.00 0.00 0.00 50 1011.1
20260831182513 72 134 2.0 3.0 0.00 0.00 0.00 50 1011.0
20260831182009 72 155 1.0 3.0 0.00 0.00 0.00 51 1011.2
20260831181503 71 143 1.0 2.0 0.00 0.00 0.00 52 1011.4
20260831180958 72 102 2.0 2.0 0.00 0.00 0.00 51 1011.3
20260831180453 71 140 0.0 3.0 0.00 0.00 0.00 54 1011.1
20260831175952 70 140 0.0 1.0 0.00 0.00 0.00 55 1011.2
20260831175449 71 3 3.0 3.0 0.00 0.00 0.00 53 1011.5
20260831174944 69 137 0.0 2.0 0.00 0.00 0.00 56 1011.4
20260831174440 69 74 1.0 3.0 0.00 0.00 0.00 56 1011.5
20260831173939 69 119 0.0 2.0 0.00 0.00 0.00 56 1011.4
20260831173438 69 342 3.0 4.0 0.00 0.00 0.00 56 1011.5
20260831172934 68 265 2.0 3.0 0.00 0.00 0.00 55 1011.7
20260831172430 68 72 2.0 6.0 0.00 0.00 0.00 54 1011.5
20260831171929 68 76 1.0 3.0 0.00 0.00 0.00 55 1011.5
20260831171426 68 328 3.0 4.0 0.00 0.00 0.00 54 1011.5
20260831170922 66 133 0.0 2.0 0.00 0.00 0.00 57 1011.5
20260831170418 66 89 2.0 3.0 0.00 0.00 0.00 57 1011.6
20260831165914 65 29 2.0 3.0 0.00 0.00 0.00 58 1011.5
20260831165410 64 96 1.0 2.0 0.00 0.00 0.00 59 1011.6
20260831164906 64 139 1.0 2.0 0.00 0.00 0.00 60 1011.5
20260831164403 64 111 3.0 4.0 0.00 0.00 0.00 60 1011.7
20260831163857 63 110 2.0 3.0 0.00 0.00 0.00 60 1011.7
20260831163353 63 96 2.0 3.0 0.00 0.00 0.00 61 1011.8